Date String (YYYY-MM-DD hh:mm:ss) UTC,Instrument flags,Ambient pressure (hPa),Sample flow (lpm),Bypass flow (lpm),Sample temperature (°C),Ambient temperature (°C),ASC tube jacket temperature (°C),LED temperature (°C),Box temperature (°C),Sample RH (%),Span deviation,Mass concentration (μg/m³),Mass concentration (μg/m³),Mass concentration (μg/m³)
DateTimeUTC,F1_M11,P_M11,Q1_M11,Q2_M11,T1_M11,T2_M11,T3_M11,T4_M11,T5_M11,U1_M11,ZSPAN_M11,X2_M11,X0_M11,X1_M11
2022-06-06 18:00:00,,0823.2,5.01,0.00,29.3,27.7,00.0,38.1,31.1,27.9,0000.0,0005.00,0014.23,0003.52
2022-06-06 18:01:00,,0823.2,4.99,0.00,29.3,27.8,00.0,38.1,31.2,27.0,0000.0,0005.03,0014.48,0003.56
2022-06-06 18:02:00,,0823.2,5.01,0.00,29.3,27.9,00.0,38.1,31.2,27.5,0000.0,0005.00,0014.47,0003.57
2022-06-06 18:03:00,,0823.1,5.01,0.00,29.3,28.1,00.0,38.2,31.2,28.3,0000.0,0004.97,0014.33,0003.58
2022-06-06 18:04:00,,0823.2,4.99,0.00,29.3,28.2,00.0,38.2,31.3,27.8,0000.0,0004.98,0014.00,0003.61
2022-06-06 18:05:00,,0823.2,5.00,0.00,29.4,28.3,00.0,38.2,31.3,28.6,0000.0,0005.02,0013.50,0003.62
2022-06-06 18:06:00,,0823.2,5.01,0.00,29.4,28.4,00.0,38.2,31.4,26.0,0000.0,0005.05,0013.67,0003.62
2022-06-06 18:07:00,,0823.3,5.00,0.00,29.4,28.5,00.0,38.2,31.4,27.8,0000.0,0005.02,0013.76,0003.59
2022-06-06 18:08:00,,0823.2,4.98,0.00,29.5,28.5,00.0,38.2,31.4,27.1,0000.0,0005.00,0014.18,0003.59
2022-06-06 18:09:00,,0823.2,5.01,0.00,29.5,28.6,00.0,38.2,31.5,27.3,0000.0,0005.01,0014.28,0003.60
2022-06-06 18:10:00,,0823.2,4.99,0.00,29.5,28.6,00.0,38.2,31.5,26.2,0000.0,0004.98,0014.69,0003.58
2022-06-06 18:11:00,,0823.2,5.01,0.00,29.5,27.8,00.0,38.2,31.3,26.1,0000.0,0004.87,0014.46,0003.54
2022-06-06 18:12:00,,0823.2,5.00,0.00,29.4,27.1,00.0,38.1,31.1,27.7,0000.0,0004.84,0014.26,0003.52
2022-06-06 18:13:00,,0823.2,5.01,0.00,29.3,26.9,00.0,38.1,31.0,27.6,0000.0,0004.82,0014.21,0003.51
2022-06-06 18:14:00,,0823.1,4.99,0.00,29.2,27.0,00.0,38.1,30.9,28.0,0000.0,0004.80,0013.37,0003.50
2022-06-06 18:15:00,,0823.1,4.99,0.00,29.2,27.1,00.0,38.1,30.9,28.2,0000.0,0004.77,0013.40,0003.48
2022-06-06 18:16:00,,0823.1,5.01,0.00,29.2,27.2,00.0,38.1,31.0,27.9,0000.0,0004.74,0013.66,0003.44
2022-06-06 18:17:00,,0823.1,5.00,0.00,29.2,27.4,00.0,38.1,31.0,26.5,0000.0,0004.67,0013.41,0003.41
2022-06-06 18:18:00,,0823.1,5.00,0.00,29.2,27.6,00.0,38.1,31.0,24.9,0000.0,0004.63,0012.53,0003.40
2022-06-06 18:19:00,,0823.1,4.99,0.00,29.2,27.8,00.0,38.1,31.1,25.4,0000.0,0004.57,0012.12,0003.35
2022-06-06 18:20:00,,0823.1,5.00,0.00,29.2,27.9,00.0,38.1,31.1,25.0,0000.0,0004.48,0012.09,0003.29
2022-06-06 18:21:00,,0823.0,5.00,0.00,29.2,28.0,00.0,38.1,31.2,25.3,0000.0,0004.47,0012.11,0003.26
2022-06-06 18:22:00,,0823.0,5.00,0.00,29.3,28.1,00.0,38.1,31.2,25.8,0000.0,0004.50,0012.38,0003.25
2022-06-06 18:23:00,,0823.0,4.99,0.00,29.3,28.3,00.0,38.1,31.3,26.3,0000.0,0004.46,0012.35,0003.21
2022-06-06 18:24:00,,0823.0,5.00,0.00,29.3,28.4,00.0,38.1,31.3,26.3,0000.0,0004.43,0012.35,0003.17
2022-06-06 18:25:00,,0822.9,5.01,0.00,29.4,28.4,00.0,38.1,31.3,27.3,0000.0,0004.41,0013.58,0003.15
2022-06-06 18:26:00,,0823.0,4.99,0.00,29.4,28.5,00.0,38.2,31.4,27.5,0000.0,0004.40,0013.51,0003.13
2022-06-06 18:27:00,,0823.0,5.00,0.00,29.4,28.6,00.0,38.2,31.4,26.7,0000.0,0004.38,0013.47,0003.13
2022-06-06 18:28:00,,0823.0,4.99,0.00,29.5,28.6,00.0,38.2,31.4,26.5,0000.0,0004.37,0014.56,0003.14
2022-06-06 18:29:00,,0822.9,5.01,0.00,29.4,27.9,00.0,38.1,31.3,25.5,0000.0,0004.39,0014.81,0003.16
2022-06-06 18:30:00,,0822.9,4.99,0.00,29.4,27.1,00.0,38.1,31.1,24.9,0000.0,0004.40,0014.92,0003.17
2022-06-06 18:31:00,,0822.9,5.00,0.00,29.3,26.9,00.0,38.0,31.0,25.7,0000.0,0004.40,0015.28,0003.18
2022-06-06 18:32:00,,0822.9,4.99,0.00,29.2,26.9,00.0,38.0,30.9,26.0,0000.0,0004.45,0014.89,0003.20
2022-06-06 18:33:00,,0822.9,5.00,0.00,29.2,27.1,00.0,38.0,30.9,26.6,0000.0,0004.49,0014.91,0003.22
2022-06-06 18:34:00,,0822.9,5.00,0.00,29.1,27.2,00.0,38.0,31.0,26.6,0000.0,0004.53,0015.03,0003.23
2022-06-06 18:35:00,,0822.9,4.99,0.00,29.1,27.4,00.0,38.0,31.0,26.7,0000.0,0004.55,0015.66,0003.25
2022-06-06 18:36:00,,0823.0,4.99,0.00,29.1,27.6,00.0,38.0,31.0,28.0,0000.0,0004.53,0014.22,0003.24
2022-06-06 18:37:00,,0823.0,5.01,0.00,29.1,27.7,00.0,38.0,31.1,27.0,0000.0,0004.58,0014.88,0003.23
2022-06-06 18:38:00,,0822.9,5.01,0.00,29.2,27.9,00.0,38.0,31.1,26.0,0000.0,0004.56,0014.95,0003.21
2022-06-06 18:39:00,,0823.0,4.99,0.00,29.2,28.0,00.0,38.0,31.1,26.5,0000.0,0004.56,0014.36,0003.19
2022-06-06 18:40:00,,0822.9,5.01,0.00,29.2,28.1,00.0,38.0,31.2,26.3,0000.0,0004.54,0014.12,0003.18
2022-06-06 18:41:00,,0823.0,5.00,0.00,29.3,28.2,00.0,38.1,31.2,25.5,0000.0,0004.58,0013.82,0003.19
2022-06-06 18:42:00,,0823.0,5.01,0.00,29.3,28.3,00.0,38.1,31.3,25.6,0000.0,0004.58,0013.02,0003.20
2022-06-06 18:43:00,,0823.0,4.99,0.00,29.3,28.4,00.0,38.1,31.3,25.6,0000.0,0004.54,0012.66,0003.18
2022-06-06 18:44:00,,0822.9,5.01,0.00,29.4,28.5,00.0,38.1,31.4,26.0,0000.0,0004.52,0012.47,0003.17
2022-06-06 18:45:00,,0823.0,5.00,0.00,29.4,28.6,00.0,38.1,31.4,26.8,0000.0,0004.50,0012.33,0003.18
2022-06-06 18:46:00,,0822.9,5.00,0.00,29.4,28.6,00.0,38.2,31.4,27.9,0000.0,0004.47,0011.58,0003.17
2022-06-06 18:47:00,,0822.8,5.01,0.00,29.4,28.1,00.0,38.1,31.3,25.8,0000.0,0004.50,0011.63,0003.17
2022-06-06 18:48:00,,0822.7,4.99,0.00,29.3,27.2,00.0,38.1,31.0,26.0,0000.0,0004.46,0011.26,0003.18
2022-06-06 18:49:00,,0822.7,5.01,0.00,29.3,26.9,00.0,38.0,31.0,25.9,0000.0,0004.44,0011.24,0003.19
2022-06-06 18:50:00,,0822.7,4.99,0.00,29.2,26.9,00.0,38.0,30.9,26.4,0000.0,0004.43,0010.38,0003.19
2022-06-06 18:51:00,,0822.7,4.99,0.00,29.1,27.0,00.0,38.0,30.9,26.7,0000.0,0004.47,0010.41,0003.19
2022-06-06 18:52:00,,0822.7,5.01,0.00,29.1,27.2,00.0,38.0,30.9,28.4,0000.0,0004.45,0010.39,0003.18
2022-06-06 18:53:00,,0822.6,4.99,0.00,29.1,27.4,00.0,38.0,31.0,27.5,0000.0,0004.43,0010.35,0003.16
2022-06-06 18:54:00,,0822.7,4.99,0.00,29.1,27.6,00.0,38.0,31.0,27.3,0000.0,0004.49,0010.65,0003.15
2022-06-06 18:55:00,,0822.6,5.01,0.00,29.2,27.7,00.0,38.0,31.1,27.3,0000.0,0004.48,0010.74,0003.14
2022-06-06 18:56:00,,0822.6,5.00,0.00,29.2,27.9,00.0,38.0,31.1,26.7,0000.0,0004.46,0011.37,0003.13
2022-06-06 18:57:00,,0822.6,4.99,0.00,29.2,28.0,00.0,38.0,31.2,26.2,0000.0,0004.39,0011.49,0003.11
2022-06-06 18:58:00,,0822.5,5.00,0.00,29.2,28.1,00.0,38.0,31.2,24.6,0000.0,0004.36,0011.81,0003.06
2022-06-06 18:59:00,,0822.5,4.99,0.00,29.3,28.2,00.0,38.0,31.2,24.2,0000.0,0004.35,0011.79,0003.01
